Погода в Винтае

Россия / Самарская область     53°30′41″N   49°49′29″E
темп.,
°C
ветер,
м/с
пор.,
м/с
влажн.,
%
обл.,
%
осадки,
мм/ч
давл.,
гПа
погр.,
м
20 июня, вс
вс2001:00+16з24912 0.0 102365
04:00+15з24910 0.0 102363
07:00+19зсз36760 0.0 1022216
10:00+24зсз34623 0.0 1022522
13:00+27зсз44535 0.0 10221126
16:00+28ссз44500 0.0 10211356
19:00+26ссз24660 0.0 1021330
22:00+20сз11820 0.0 102211
21 июня, пн
пн2101:00+19сз01840 0.0 102211
04:00+19св00860 0.0 102211
07:00+23юв11750 0.0 1023146
10:00+26юз22630 0.3 1023944
13:00+29з33499 0.2 10222021
16:00+29сз224938 0.3 10221501
19:00+27юз12625 0.0 1021184
22:00+22ю11715 0.0 102211
22 июня, вт
вт2201:00+20юз11720 0.0 102211
04:00+19юз11780 0.0 102311
07:00+23з12690 0.0 1023128
10:00+28зсз23540 0.0 1023893
13:00+30зсз33442 0.0 10231869
16:00+30зсз23400 0.0 10222021
19:00+28сз12595 0.0 1021233
22:00+23ююз00738 0.0 102211
23 июня, ср
ср2301:00+21зюз11745 0.0 102211
04:00+20зсз117581 0.0 102211
07:00+24сз12680 0.0 1022141
10:00+28сз33541 0.0 1021856
13:00+30сз444613 0.0 10212164
16:00+30ссз45435 0.0 10202148
19:00+28сз23571 0.0 1020343
22:00+22зсз22682 0.0 101915
24 июня, чт
чт2401:00+21зсз127923 0.0 101917
04:00+20зсз22800 0.0 101928
07:00+23сз36740 0.0 1019246
10:00+27сз34590 0.0 1018626
13:00+30с34485 0.3 10181533
16:00+30ссв344776 0.3 10182110
19:00+20сз51093100 8.9 1019279
22:00+19ю118368 11.8 101811